Valparaiso, IN

12:57 PM CST on January 22, 2017 (GMT -0600)
Porter County Municipal

Weather History for KVPZ - January, 2012

Change the Weather History Date:

Sunday, January 1, 2012

  Actual Average Record
Temperature  
Mean Temperature 36 °F 24 °F  
Max Temperature 43 °F 31 °F 54 °F (2011)
Min Temperature 28 °F 17 °F 4 °F (2010)
Degree Days  
Heating Degree Days 30 41  
Month to date heating degree days 41  
Since 1 July heating degree days 2443  
Cooling Degree Days 0 0  
Month to date cooling degree days 0  
Year to date cooling degree days 0  
Moisture  
Dew Point 28 °F    
Average Humidity 74    
Maximum Humidity 93    
Minimum Humidity 60    
Precipitation  
Precipitation 0.03 in 0.06 in 0.21 in (2005)
Month to date precipitation 0.06  
Year to date precipitation 0.06  
Sea Level Pressure  
Sea Level Pressure 29.85 in    
Wind  
Wind Speed 19 mph (West)    
Max Wind Speed 29 mph    
Max Gust Speed 43 mph    
Visibility 9 miles    
Events Rain , Snow    
T = Trace of Precipitation, MM = Missing Value Source: NWS Daily Summary

Daily Weather History Graph

Daily Weather History Graph

Search for Another Location

Airport or City:

Trip Planner

Search our weather history database for the weather conditions in past years. The results will help you decide how hot, cold, wet, or windy it might be!

Date:

Astronomy

Jan. 01, 2012 Rise Set
Actual Time 7:14 AM CST 4:28 PM CST
Civil Twilight 6:43 AM CST 4:59 PM CST
Nautical Twilight 6:08 AM CST 5:34 PM CST
Astronomical Twilight 5:34 AM CST 6:08 PM CST
Moon 11:19 AM CST (1/1) 12:06 AM CST (1/1)
Length of Visible Light 10h 16m
Length of Day
9h 14m
First Quarter, 55% of the Moon is Illuminated
Jan 1
First Quarter
Jan 9
Full
Jan 16
Last Quarter
Jan 23
New
Jan 30
First Quarter

Hourly Weather History & Observations

Time (CST) Temp. Windchill Dew Point Humidity Pressure Visibility Wind Dir Wind Speed Gust Speed Precip Events Conditions
12:53 AM 39.9 °F 33.4 °F 35.1 °F 83% 29.68 in 10.0 mi SSE 10.4 mph - N/A   Clear
2:53 AM 41.0 °F 34.3 °F 35.1 °F 79% 29.61 in 10.0 mi South 11.5 mph - N/A   Clear
3:53 AM 41.0 °F 35.2 °F 36.0 °F 82% 29.57 in 10.0 mi South 9.2 mph - N/A   Clear
4:53 AM 43.0 °F 36.0 °F 37.0 °F 80% 29.56 in 10.0 mi SSW 13.8 mph - N/A   Partly Cloudy
5:53 AM 43.0 °F 33.1 °F 36.0 °F 76% 29.58 in 10.0 mi WSW 26.5 mph 36.8 mph N/A   Scattered Clouds
6:00 AM 42.8 °F 33.5 °F 35.6 °F 76% 29.57 in 10.0 mi WSW 23.0 mph 34.5 mph N/A   Mostly Cloudy
6:53 AM 41.0 °F 31.9 °F 36.0 °F 82% 29.61 in 10.0 mi WSW 19.6 mph 29.9 mph N/A   Overcast
8:53 AM 37.0 °F 25.4 °F 34.0 °F 89% 29.72 in 5.0 mi WNW 25.3 mph 36.8 mph 0.02 in Rain Light Rain
9:53 AM 35.1 °F 23.5 °F 33.1 °F 92% 29.78 in 4.0 mi WNW 21.9 mph 33.4 mph 0.01 in Snow Light Snow
10:13 AM 35.6 °F 24.0 °F 33.8 °F 93% 29.78 in 10.0 mi WNW 23.0 mph 29.9 mph 0.00 in   Overcast
10:35 AM 37.4 °F 26.9 °F 33.8 °F 87% 29.79 in 10.0 mi West 20.7 mph - 0.00 in   Overcast
11:25 AM 39.2 °F 28.0 °F 30.2 °F 70% 29.79 in 10.0 mi West 26.5 mph 36.8 mph N/A   Mostly Cloudy
11:32 AM 39.2 °F 27.6 °F 30.2 °F 70% 29.79 in 10.0 mi West 28.8 mph 36.8 mph N/A   Mostly Cloudy
11:39 AM 39.2 °F 28.3 °F 30.2 °F 70% 29.79 in 10.0 mi WNW 25.3 mph 40.3 mph N/A   Scattered Clouds
11:53 AM 39.9 °F 29.0 °F 30.0 °F 68% 29.82 in 10.0 mi West 26.5 mph 34.5 mph N/A   Mostly Cloudy
12:53 PM 37.9 °F 26.1 °F 25.0 °F 60% 29.85 in 10.0 mi West 27.6 mph 41.4 mph N/A   Mostly Cloudy
1:53 PM 34.0 °F 20.5 °F 21.9 °F 61% 29.90 in 9.0 mi West 28.8 mph 42.6 mph 0.00 in Snow Light Snow
2:53 PM 32.0 °F 20.1 °F 19.9 °F 61% 29.95 in 9.0 mi WNW 19.6 mph 33.4 mph 0.00 in   Overcast
3:53 PM 32.0 °F 17.9 °F 21.0 °F 64% 29.99 in 10.0 mi West 28.8 mph 36.8 mph 0.00 in   Overcast
4:53 PM 32.0 °F 18.9 °F 21.0 °F 64% 30.03 in 10.0 mi West 24.2 mph 31.1 mph N/A   Overcast
5:53 PM 32.0 °F 18.9 °F 19.9 °F 61% 30.05 in 10.0 mi West 24.2 mph 34.5 mph N/A   Overcast
6:53 PM 30.9 °F 17.2 °F 21.0 °F 67% 30.07 in 10.0 mi West 25.3 mph 35.7 mph 0.00 in   Overcast
7:53 PM 30.0 °F 16.0 °F 21.9 °F 72% 30.07 in 5.0 mi West 25.3 mph 36.8 mph 0.00 in Snow Light Snow
8:53 PM 30.0 °F 17.2 °F 21.0 °F 69% 30.06 in 9.0 mi West 20.7 mph 31.1 mph 0.00 in   Overcast
9:14 PM 28.4 °F 16.2 °F 23.0 °F 80% 30.04 in 2.5 mi WNW 17.3 mph 28.8 mph 0.00 in Snow Light Snow
9:17 PM 28.4 °F 15.4 °F 23.0 °F 80% 30.04 in 3.0 mi West 19.6 mph 26.5 mph 0.00 in Snow Light Snow
9:53 PM 30.0 °F 17.2 °F 21.0 °F 69% 30.06 in 10.0 mi West 20.7 mph 34.5 mph 0.00 in   Overcast
11:32 PM 28.4 °F 15.4 °F 21.2 °F 74% 30.03 in 7.0 mi West 19.6 mph 31.1 mph 0.00 in Snow Light Snow
11:53 PM 28.9 °F 15.8 °F 21.0 °F 72% 30.05 in 9.0 mi West 20.7 mph 28.8 mph 0.00 in Snow Light Snow